Fort Wayne Police Department
Fort Wayne Police Department
Emergencies Call: 911
Non-Emergencies: (260) 427-1222
report drug house

Daily Activity Logs

Activity Log for July 3, 2014 Community Search

Incident Time Nature Address
14F086144 00:06:20 48 SUSPICIOUS 500 FIFTH ST
14F086142 00:06:42 48 SUSPICIOUS 100 MAIN ST E & CLINTON ST S
14F086143 00:07:37 14 WARRANT 300 DEWALD ST E
14F086146 00:15:56 44LP 6200 PRESTWICK RUN
14F086148 00:17:14 44LP 4600 WEATHERSIDE RUN
14F086145 00:18:59 30 TRAFFIC STOP 1200 GAY ST & LEWIS ST E
14F086149 00:22:27 911 HANG UP 1800 WELLS ST
14F086147 00:23:23 28 DUI 4700 STATE BLVD E & REED RD
14F086151 00:24:40 44LM 2800 KNODE CT
14F086152 00:26:11 63 CONTACT 7400 ST JOE RD
14F086150 00:29:27 129 2200 EDSALL AVE
14F086153 00:35:20 55 FIGHT 7900 DECATUR RD
14F086154 00:37:44 30 TRAFFIC STOP 1700 BAXTER ST & ANTHONY BLVD S
14F086155 00:38:29 44FW 4600 STANDISH DR
14F086157 00:39:20 46 DOMESTIC 700 WILDWOOD AVE W
14F086156 00:40:19 30 TRAFFIC STOP 6600 ST JOE RD & EVARD RD
14F086158 00:41:14 44FW 7300 CAPRI DR
14F086159 00:42:39 43 DISTURBANCE 2900 INDIANA AVE & COTTAGE AVE
14F086160 00:55:50 48 SUSPICIOUS 1600 RICHARDSON ST
14F086162 01:00:36 44 NUISANCE 2500 SOUTHWAYNE AVE
14F086161 01:03:27 46 DOMESTIC 3700 ROBINWOOD DR
14F086163 01:04:55 TOW 1300 EWING ST & BRACKENRIDGE ST W
14F086166 01:05:12 46 DOMESTIC 1600 ELMROW DR
14F086164 01:05:46 48,36 3100 WELLS ST
14F086165 01:07:49 30 TRAFFIC STOP 1100 HUESTIS AVE & BROADWAY
14F086167 01:13:55 55 FIGHT 7600 HOPE DR
14F086168 01:18:55 911 HANG UP 5200 HESSEN CASSEL RD
14F086169 01:25:15 48 SUSPICIOUS 4100 AVONDALE DR
14F086170 01:36:42 48 SUSPICIOUS 6200 TARBET PL & COOPER POINT RUN
14F086171 01:41:56 44FW 800 TENNESSEE AVE
14F086172 01:44:05 18 WORK TRAFFIC 30400 I 69 SB
14F086173 01:51:52 46,62 1700 EDSALL AVE
14F086175 01:53:50 43 DISTURBANCE 4600 WEISSER PARK AVE
14F086174 01:55:23 30 TRAFFIC STOP 4100 LAFAYETTE ST S
14F086176 01:57:28 46,96 800 HARMAR ST
14F086179 02:10:22 43 DISTURBANCE 3100 FROSCH DR
14F086180 02:12:36 48 SUSPICIOUS 2500 HOEVELWOOD DR
14F086181 02:19:12 99 NARCOTICS 3700 OLIVER ST
14F086182 02:20:49 39 STOLEN VEHIC 3900 CLINTON ST N
14F086183 02:30:02 65T SUICIDE THR 2900 COLISEUM BLVD W
14F086186 02:35:25 111D DOG 1600 RICHARDSON ST
14F086184 02:43:46 67 INDECENT 2600 FOX AVE
14F086185 02:47:04 46 DOMESTIC 500 RUDISILL BLVD E
14F086187 03:08:23 48,36 2900 GOSHEN RD
14F086188 03:08:33 44FW 2400 CRESCENT AVE & DODGE AVE
14F086190 03:09:39 96 BATTERY 2000 MAPLEWOOD RD
14F086189 03:10:54 30 TRAFFIC STOP 1100 ANTHONY BLVD S & LEWIS ST E
14F086192 03:11:44 15 ASSIST 4900 FAIRINGTON DR
14F086191 03:12:19 20 PROBLEM UNK 6700 LYNVALE DR
14F086193 03:14:30 26HS PI HITSKIP 7200 ROTHMAN RD & ALLENBROOK BLVD
14F086198 03:20:06 22I JUV INVEST 6500 PAWAWNA DR
14F086194 03:23:28 25 PD ACCIDENT 8800 LIMA RD & WALLEN RD W
14F086195 03:27:29 129 5200 BROOKVIEW DR
14F086196 03:28:06 129 5200 BROOKVIEW DR
14F086197 03:28:18 129 5200 EASTWICK DR
14F086199 03:38:31 25HS HIT SKIP 1900 BROADWAY
14F086200 03:45:04 43 DISTURBANCE 1300 WAYNE ST E
14F086201 03:48:47 1 MEET 400 RUDISILL BLVD E
14F086202 04:02:41 1 MEET 3700 OLIVER ST
14F086203 04:09:40 43 DISTURBANCE 2700 EAST DR
14F086204 04:15:59 16,97 1700 APPLE GLEN BLVD
14F086205 04:20:36 46 DOMESTIC 900 WASHINGTON BLVD E
14F086206 04:24:41 46,96 700 UNION ST
14F086207 04:42:55 46 DOMESTIC 3200 FELICIAN ST
14F086209 04:54:17 108 FOLLOWUP 4000 SOUTHWAYNE AVE
14F086208 04:57:06 40A AUDIBLE 6600 ST JOE RD
14F086210 05:30:02 46,96 3600 CHEVIOT DR
14F086211 05:38:43 48 SUSPICIOUS 4500 FAIRFIELD AVE
14F086212 06:01:05 30 TRAFFIC STOP 7300 COLDWATER RD & COOK RD E
14F086213 06:24:26 65T SUICIDE THR 3300 DIPLOMAT DR
14F086214 06:31:07 1 MEET 00 MAIN ST E
14F086215 06:46:36 34 TRAFF HAZARD 1800 WAYNE TRACE E & ANTHONY BLVD
14F086216 07:04:54 39 STOLEN VEHIC 900 IRENE AVE
14F086217 07:07:23 44 NUISANCE 4800 BELVIDERE DR
14F086218 07:09:27 40A AUDIBLE 5400 COVENTRY LN
14F086220 07:19:45 18 WORK TRAFFIC 2000 SPY RUN AVE & GRISWOLD DR
14F086219 07:21:01 48,35 4500 SANTA ANA DR
14F086221 07:28:33 23 VANDALISM 5000 MAPLE RIDGE DR
14F086222 07:30:51 34 TRAFF HAZARD 5400 LIMA RD & I 69 NB
14F086223 07:40:15 48,36 6500 FAIRFIELD AVE
14F086224 07:42:40 14S SERVING WAR 2700 WASHINGTON CENTER RD W
14F086225 07:44:32 HARASSMENT 3500 COLISEUM BLVD W
14F086226 07:49:14 911 HANG UP 3300 CAVALIER DR
14F086227 07:52:16 50,ATTEMPTED 6300 THAXTON PL
14F086228 07:53:45 40A AUDIBLE 12000 SYCAMORE LAKES CT
14F086229 07:58:06 23,35 VAND VEH 5100 ROBERTA DR
14F086230 08:06:38 40A AUDIBLE 4500 WINSTON DR
14F086232 08:09:13 67 INDECENT 5300 CLINTON ST N
14F086231 08:10:15 40A AUDIBLE 4200 LYNFIELD DR
14F086233 08:11:47 40A AUDIBLE 400 COLISEUM BLVD W
14F086234 08:14:17 26 PI ACCIDENT 6300 JEFFERSON BLVD W
14F086235 08:23:08 48,35 4800 SIRLIN DR
14F086236 08:30:13 33,34 2200 CLINTON ST S
14F086237 08:31:12 911 HANG UP 9300 SHOREWOOD TRL
14F086238 08:33:04 48 SUSPICIOUS 3100 INDIANA AVE
14F086239 08:39:00 40A AUDIBLE 4100 JEFFERSON BLVD W
14F086240 08:44:28 25 PD ACCIDENT 6600 GEORGETOWN NORTH BLVD & STATE
14F086242 08:45:51 40A AUDIBLE 2800 STATE BLVD E
14F086244 08:47:29 16,97 300 WAYNE ST E
14F086248 09:06:23 102,TX THREATS 5600 LAFAYETTE ST S & PAULDING RD
14F086249 09:11:09 30 TRAFFIC STOP 6700 BLUFFTON RD & LOWER HUNTINGTO
14F086250 09:13:34 14S SERVING WAR 1500 THIRD ST
14F086251 09:14:39 16,97 4600 LIVE OAK BLVD
14F086252 09:20:12 23 VANDALISM 8000 DURBAN DR
14F086254 09:20:29 17 MOTOR CHECK 8200 BAER RD
14F086253 09:20:59 43 DISTURBANCE 2900 GOSHEN RD
14F086255 09:38:26 38 LOST/STOLEN 9300 CLINTON ST N
14F086256 09:38:41 43 DISTURBANCE 7700 NEWLIN DR
14F086257 09:39:53 48 SUSPICIOUS 5500 LOIS LN
14F086258 09:41:43 23,35 VAND VEH 1800 BLUFFTON RD
14F086269 09:44:50 102 THREATS 400 COLISEUM BLVD W
14F086259 09:47:56 26 PI ACCIDENT 3500 ANTHONY BLVD N & ST JOE RIVER
14F086260 09:51:59 51,35 3500 MCCORMICK AVE
14F086261 09:56:20 40I INTRUSION 2600 STATE BLVD W
14F086262 10:02:01 43 DISTURBANCE 7000 CLINTON ST N
14F086263 10:02:13 26 PI ACCIDENT 5700 ILLINOIS RD & AVENUE OF AUTOS
14F086265 10:04:49 25 PD ACCIDENT 8000 ABOITE CENTER RD & I 69 NB
14F086264 10:05:06 39 STOLEN VEHIC 7700 SOUTHTOWN XING
14F086268 10:16:01 25 PD ACCIDENT 200 ELIZABETH ST & CLINTON ST N
14F086266 10:18:35 47 REMOVE ITEMS 2500 MINER ST
14F086267 10:21:52 75 PURSUIT 4500 LAFAYETTE ST S & SHERWOOD TER
14F086270 10:32:58 46 DOMESTIC 1300 CAPITOL AVE
14F086272 10:33:10 41 MAN DOWN 5900 ILLINOIS RD
14F086271 10:33:55 51 THEFT 1100 COLISEUM BLVD E
14F086274 10:34:13 40A AUDIBLE 400 CONCORD LN W
14F086275 10:38:51 40A AUDIBLE 400 BERRY ST E
14F086276 10:41:57 46 DOMESTIC 1700 REED RD
14F086277 10:43:41 40A AUDIBLE 4700 WELLINGTON DR
14F086278 10:45:58 43 DISTURBANCE 3500 SMITH ST
14F086279 10:53:28 911 HANG UP 8100 TRIER RD & GOEGLEIN RD
14F086280 10:55:34 911 HANG UP 9300 LIBERTY MILLS RD & EASTHILLS
14F086282 11:07:09 17 MOTOR CHECK 3700 PEBBLEWOOD PL
14F086281 11:07:38 40H HOLDUP ALRM 4700 WELLINGTON DR
14F086283 11:11:59 65T SUICIDE THR 2600 OLIVER ST
14F086284 11:12:03 66 MENTALLY ILL 2200 DUNKELBERG RD
14F086285 11:12:24 43 DISTURBANCE 4800 WAYNE PARK DR
14F086286 11:16:33 51 THEFT 7200 KENSINGTON DR E
14F086287 11:21:14 30 TRAFFIC STOP 2100 ARDMORE AVE & TAYLOR ST
14F086288 11:21:55 46 DOMESTIC 7900 DECATUR RD
14F086289 11:25:46 30 TRAFFIC STOP 300 SUPERIOR ST E
14F086295 11:31:34 1 MEET 00 MAIN ST E
14F086290 11:33:42 43 DISTURBANCE 700 BLUEBERRY LN
14F086291 11:37:53 75 PURSUIT 1000 HIGH ST & ST MARYS AVE
14F086333 11:38:28 50 BURGLARY 3300 COLISEUM BLVD W
14F086292 11:39:20 37 PARKING VIOL 8000 WAYWARD CT
14F086298 11:40:26 39 STOLEN VEHIC 2800 EDWARDS ST
14F086293 11:41:30 99 NARCOTICS 2500 THOMPSON AVE & MAPLE AVE
14F086294 11:41:36 911 HANG UP 4600 PLAZA DR
14F086297 11:42:50 102 THREATS 5500 LOIS LN
14F086296 11:44:26 51 THEFT 4100 CLINTON ST N
14F086300 11:45:22 40A AUDIBLE 3200 ST JOE CENTER RD
14F086301 11:45:49 50 BURGLARY 3400 STELLHORN RD
14F086299 11:45:54 64 NOT SEEN 3100 CASTLE DR
14F086302 11:49:53 51 THEFT 7200 HICKORY CREEK DR
14F086303 11:55:59 46 DOMESTIC 4700 BOWSER AVE
14F086304 11:58:48 911 HANG UP 11600 COLDWATER OFFICE PARK
14F086305 12:04:07 911 HANG UP 3400 ROBINWOOD DR
14F086306 12:10:48 25 PD ACCIDENT 900 WAKEFIELD AVE & WARWICK AVE
14F086313 12:16:58 34 TRAFF HAZARD 4100 ARDMORE AVE & ENGLE RD
14F086308 12:21:58 66 MENTALLY ILL 1200 WAYNE ST E & CANAL ST
14F086309 12:22:09 911 HANG UP 300 BERRY ST W
14F086310 12:23:30 25 PD ACCIDENT 1700 HOBSON RD
14F086311 12:25:11 40I INTRUSION 3300 PAULDING RD E
14F086312 12:26:25 51JO 5900 ILLINOIS RD
14F086314 12:28:19 50 BURGLARY 3300 WARSAW ST
14F086315 12:30:01 108 FOLLOWUP 00 MAIN ST E
14F086316 12:32:47 111D DOG 4300 PLAZA DR
14F086317 12:33:49 96 BATTERY 700 BROADWAY
14F086318 12:34:40 911 HANG UP 1000 WALLACE ST E
14F086320 12:36:47 103 UNWANTED 2700 WASHINGTON CENTER RD W
14F086321 12:37:05 25 PD ACCIDENT 6000 JEFFERSON BLVD W & GETZ RD
14F086319 12:37:56 51 THEFT 7200 PEERLESS DR
14F086322 12:40:18 63 CONTACT 31500 I 69 SB
14F086323 12:40:34 48,35 6300 NINA DR
14F086324 12:46:44 911 HANG UP 600 DEWALD ST E
14F086325 12:49:30 25 PD ACCIDENT 2700 JEFFERSON BLVD W
14F086326 12:50:37 46,96 2100 GRAHAM DR
14F086330 12:54:51 47 REMOVE ITEMS 7200 PEERLESS DR
14F086329 12:58:54 102 THREATS 4200 WASHINGTON CENTER RD W
14F086327 12:59:29 43 DISTURBANCE 500 SOUTHVIEW AVE
14F086328 13:02:28 18 WORK TRAFFIC 3000 PONTIAC ST E
14F086331 13:04:34 1 MEET 2000 SPY RUN AVE & GRISWOLD DR
14F086334 13:11:15 44FW 1900 PETTIT AVE E
14F086335 13:13:32 25 PD ACCIDENT 10300 AUBURN RD & DUPONT RD E
14F086337 13:19:59 33J LOCKED OUT 1700 DUPONT RD W & LIMA RD
14F086336 13:21:30 40A AUDIBLE 3700 HOLTON AVE
14F086338 13:30:24 911 HANG UP 1000 CALHOUN ST S
14F086339 13:32:22 17 MOTOR CHECK 3900 PIPER DR
14F086340 13:34:07 50,ATTEMPTED 6000 HOLLEY OAK DR
14F086341 13:34:44 51 THEFT 1100 WILT ST
14F086343 13:39:24 911 HANG UP 5300 COLDWATER RD
14F086342 13:40:08 911 HANG UP 2200 HAZELWOOD AVE
14F086345 13:41:25 25HS HIT SKIP 1300 GREENE ST
14F086344 13:42:07 51 THEFT 6300 LIMA RD
14F086346 13:43:35 51 THEFT 5900 ILLINOIS RD
14F086347 13:44:06 40A AUDIBLE 1400 WALL ST
14F086348 13:44:29 103 UNWANTED 1000 COLISEUM BLVD W
14F086349 13:49:43 25,86 2300 MAUMEE AVE
14F086350 13:52:50 51 THEFT 4100 JEFFERSON BLVD W
14F086351 13:54:03 30 TRAFFIC STOP 10000 AUBURN RD & AUBURN PARK BLVD
14F086352 13:54:44 34 TRAFF HAZARD 31100 I 69 NB
14F086353 13:56:52 48 SUSPICIOUS 3800 LIMA RD
14F086354 13:59:07 25HS HIT SKIP 4200 COLDWATER RD
14F086355 14:00:42 46 DOMESTIC 4600 KINGSBURY DR
14F086358 14:01:33 15 ASSIST 7400 GLEN GELDER CIR
14F086356 14:02:29 48 SUSPICIOUS 2000 HANNA ST S
14F086357 14:02:31 51 THEFT 1700 TECUMSEH ST
14F086359 14:02:55 43 DISTURBANCE 5800 FAIRFIELD AVE
14F086360 14:05:03 43 DISTURBANCE 2600 CHARLOTTE AVE
14F086361 14:05:28 43 DISTURBANCE 4400 SMITH ST
14F086362 14:10:07 43 DISTURBANCE 900 CALHOUN ST S & WASHINGTON BLVD
14F086363 14:10:47 22I JUV INVEST 5800 FAIRFIELD AVE
14F086373 14:12:22 1 MEET 1600 ELMROW DR
14F086365 14:13:08 51 THEFT 5700 CHALLENGER PKWY
14F086366 14:13:13 33J LOCKED OUT 3800 LIMA RD
14F086369 14:14:02 51 THEFT 1100 STATE BLVD W
14F086367 14:14:50 17 MOTOR CHECK 1600 WALLEN RD W
14F086368 14:18:39 22I JUV INVEST 600 LEWIS ST E & HANNA ST S
14F086370 14:18:44 40A AUDIBLE 400 WAYNE ST E
14F086375 14:20:33 51 THEFT 200 RUDISILL BLVD E
14F086371 14:20:59 30 TRAFFIC STOP W BERRY ST & S HARRISON ST
14F086372 14:22:07 83 INFO REPORT 2800 HOLTON AVE
14F086376 14:26:11 39U UNAUTHORIZE 5600 DECATUR RD
14F086374 14:26:15 30 TRAFFIC STOP 4700 ANTHONY BLVD S & CAPITOL AVE
14F086377 14:31:57 30 TRAFFIC STOP 3100 NUTTMAN AVE & FREEMAN ST
14F086378 14:36:46 129 1500 SYCAMORE HILLS DR
14F086379 14:36:52 25HS HIT SKIP 4700 GAYWOOD DR
14F086380 14:44:40 53 ARMED ROB 1400 BAXTER ST
14F086381 14:45:46 17 MOTOR CHECK 1700 FOLSOM LN
14F086385 14:51:21 66 72 HOUR 1300 WASHINGTON BLVD W
14F086382 14:52:25 33,34 3700 COLDWATER RD & CLINTON ST N
14F086387 14:54:47 25 PD ACCIDENT 3500 WEISSER PARK AVE
14F086386 14:55:53 30 TRAFFIC STOP 3400 SUBURBAN DR & SOUTHBEND DR
14F086388 14:59:39 911 HANG UP 3300 RODGERS AVE
14F086389 14:59:39 51JO 5900 ILLINOIS RD
14F086390 15:00:24 911 HANG UP 800 BAXTER ST
14F086393 15:01:00 38 LOST/STOLEN 800 COLISEUM BLVD W
14F086391 15:01:05 911 HANG UP 2600 SHERMAN BLVD
14F086399 15:03:48 1 MEET 4000 WENONAH LN
14F086392 15:05:34 99 NARCOTICS 00 MAIN ST E
14F086394 15:06:44 22I JUV INVEST 4700 CABALLERO CT
14F086397 15:06:58 43 DISTURBANCE 1100 WILT ST
14F086396 15:07:54 911 HANG UP 1100 ELMWOOD AVE
14F086395 15:08:34 38 LOST/STOLEN 2200 CALHOUN ST S
14F086398 15:12:56 40A AUDIBLE 3100 OXFORD ST
14F086400 15:15:15 911 HANG UP 4600 VIRGINIA AVE
14F086401 15:17:02 96JO 2200 CRESCENT AVE
14F086402 15:17:14 48,36 9300 ROTHMAN LN & WHEELOCK RD
14F086403 15:22:50 30 TRAFFIC STOP 1500 WAYNE ST E
14F086404 15:24:19 51 THEFT 6000 LIMA RD
14F086406 15:25:01 50IP BURG I/P 600 THIRD ST
14F086405 15:25:02 16V PICKUP VID 00 MAIN ST E
14F086407 15:26:57 46,96 8300 BRIDGEWAY DR
14F086408 15:27:41 25 PD ACCIDENT 30900 I 69 SB
14F086409 15:36:55 17 MOTOR CHECK 800 AVENUE OF AUTOS
14F086410 15:37:45 51 THEFT 10100 AUBURN PARK DR
14F086411 15:40:34 25HS HIT SKIP 6000 MAPLECREST RD
14F086412 15:43:18 23,35 VAND VEH 300 WASHINGTON BLVD E
14F086414 15:45:34 108 FOLLOWUP 00 MAIN ST E
14F086413 15:46:31 25 PD ACCIDENT 3200 DUPONT RD E & I 69 NB
14F086416 15:49:20 43 DISTURBANCE 4000 SOUTHWAYNE AVE
14F086415 15:51:01 30 TRAFFIC STOP 300 BERRY ST W & EWING ST
14F086417 15:58:23 97 FOUND ITEMS 00 MAIN ST E
14F086418 16:04:32 25 PD ACCIDENT 1900 BROADWAY & TAYLOR ST
14F086419 16:06:28 65T SUICIDE THR 3500 PARKHILL AVE
14F086420 16:07:48 911 HANG UP 3900 ROBINWOOD DR
14F086421 16:07:59 48,35 400 DALMAN AVE
14F086422 16:09:35 46,96 3300 VESEY AVE
14F086423 16:10:07 46,96 7900 SERENITY DR
14F086424 16:10:54 22I JUV INVEST 400 COX DR W & FAIRFIELD AVE
14F086431 16:17:49 16,97 5300 COLDWATER RD
14F086425 16:19:36 25 PD ACCIDENT 1700 WASHINGTON CENTER RD W
14F086429 16:19:57 39R STOLEN RECO 2100 ST MARYS AVE
14F086426 16:20:37 30 TRAFFIC STOP 700 WALLEN RD E & FALCONS RUN
14F086427 16:22:18 911 HANG UP 4600 WERLING DR
14F086428 16:27:10 16V PICKUP VID 00 MAIN ST E
14F086430 16:30:24 911 HANG UP 3900 RAYMOND AVE
14F086432 16:31:35 51,35 2400 COLISEUM BLVD S & RAYMOND AVE
14F086434 16:31:37 911 HANG UP 2000 CALHOUN ST S
14F086433 16:31:57 40P PANIC ALARM 200 SEMINOLE CIR S
14F086435 16:39:15 25 PD ACCIDENT 400 WASHINGTON BLVD E & CLAY ST
14F086436 16:44:00 25 PD ACCIDENT 4100 PAUL SHAFFER DR & COLISEUM BL
14F086437 16:46:22 22I JUV INVEST 1500 ST MARYS AVE & SPRING ST
14F086440 16:47:39 1 MEET 200 RUDISILL BLVD E
14F086438 16:49:59 40 ALARM 800 LAFAYETTE ST S
14F086439 16:50:45 103 UNWANTED 3900 CALHOUN ST S
14F086442 16:53:25 47 REMOVE ITEMS 800 OAKLAWN CT
14F086441 16:59:05 40A AUDIBLE 3500 SPRINGBROOK DR
14F086443 17:00:25 43 DISTURBANCE 5300 COLDWATER RD
14F086445 17:05:32 51IP 5900 ILLINOIS RD
14F086444 17:05:44 51,35 800 WALNUT ST
14F086447 17:06:04 25HS HIT SKIP 1000 ELMWOOD AVE & ONEIDA ST
14F086448 17:14:25 63 CONTACT 1900 GOSHEN RD & HARRIS RD
14F086449 17:16:09 80 CIVIL INVEST 4600 PINE CREST DR
14F086473 17:18:15 50 BURGLARY 1500 TULIP TREE RD
14F086474 17:21:37 99 NARCOTICS 6500 COVINGTON RD
14F086450 17:21:47 33J LOCKED OUT 5300 COLDWATER RD
14F086451 17:23:46 25 PD ACCIDENT 3800 STELLHORN RD & WYANDOTTE DR
14F086452 17:24:24 28 DUI 8200 JEFFERSON BLVD W & I 69 NB
14F086454 17:27:20 46 DOMESTIC 00 MAIN ST E
14F086453 17:30:00 26 PI ACCIDENT 6100 REED RD & JASON DR
14F086455 17:35:08 911 HANG UP 1800 BLUFFTON RD
14F086456 17:38:33 30 TRAFFIC STOP 2800 MAIN ST W & JEFFERSON BLVD W
14F086457 17:39:03 33J LOCKED OUT 5900 ILLINOIS RD
14F086458 17:39:59 34 TRAFF HAZARD 7100 ILLINOIS RD & HADLEY RD S
14F086459 17:40:04 46 DOMESTIC 2800 COVINGTON RD
14F086460 17:42:53 25 PD ACCIDENT 600 MARCELLE DR
14F086462 17:43:51 25 PD ACCIDENT 7100 COVINGTON RD & HADLEY RD S
14F086461 17:45:02 911 HANG UP 2500 STANFORD AVE
14F086463 17:48:09 911 HANG UP 2800 MCCORMICK AVE
14F086465 17:57:25 911 HANG UP 6100 CALHOUN ST S
14F086468 17:58:07 911 HANG UP 4600 VIRGINIA AVE
14F086466 17:58:15 46,96 1400 TULIP TREE RD
14F086464 17:59:34 63 CONTACT 2800 EDWARDS ST
14F086467 18:01:26 103 UNWANTED 7400 MILL RUN DR
14F086469 18:03:28 911 HANG UP 2600 COLISEUM BLVD W
14F086472 18:05:16 50 BURGLARY 1200 PONTIAC ST E
14F086470 18:13:40 43 DISTURBANCE 1600 WILLISTEAD PL
14F086471 18:13:42 39U UNAUTHORIZE 900 WASHINGTON BLVD E
14F086475 18:25:05 46 DOMESTIC 3200 RODGERS AVE
14F086477 18:26:26 34 TRAFF HAZARD 800 WASHINGTON CENTER RD E & DARTM
14F086476 18:26:27 46 DOMESTIC 800 BUCHANAN ST
14F086478 18:29:19 48 SUSPICIOUS 8500 GREYHAWK DR
14F086479 18:29:37 27 RECKLESS DRI 4900 LAFAYETTE ST S & PETTIT AVE E
14F086480 18:32:41 43 DISTURBANCE 4800 GAYWOOD DR
14F086481 18:38:15 46 DOMESTIC 7300 TREVERTON CT
14F086482 18:39:29 911 HANG UP 4700 INNSBRUCK DR
14F086484 18:40:31 42 INTOX PERSON 6200 AMARILLO DR
14F086483 18:40:51 40A AUDIBLE 400 LEITH ST E
14F086485 18:46:09 108 FOLLOWUP 5200 CLINTON ST N
14F086486 18:46:34 47 REMOVE ITEMS 300 SUTTENFIELD AVE E
14F086487 18:50:10 129 1900 WOOD MOOR DR
14F086497 18:52:32 23 VANDALISM 1300 OXFORD ST
14F086490 18:54:58 24 MISSING PERS 1700 HILLSIDE AVE
14F086492 18:56:11 48 SUSPICIOUS 4200 TAMARACK DR
14F086488 18:56:23 40A AUDIBLE 300 WOODLAND AVE E
14F086489 18:56:50 108 FOLLOWUP 3900 STATE BLVD E & COLISEUM BLVD
14F086491 18:58:55 41 MAN DOWN 1700 PAULDING RD E
14F086493 19:03:27 46 DOMESTIC 3000 MCARTHUR DR
14F086494 19:06:27 48 SUSPICIOUS 1400 BROADWAY
14F086496 19:11:29 43 DISTURBANCE 1700 POINSETTE DR & HUFFMAN BLVD
14F086495 19:12:09 51 THEFT 6500 AZALEA DR
14F086498 19:15:07 911 HANG UP 3900 CALHOUN ST S
14F086499 19:15:55 96JO 600 FOURTH ST W
14F086501 19:16:12 63 CONTACT 1400 HIGH ST
14F086502 19:17:09 40A AUDIBLE 5000 RIVIERA CT
14F086500 19:19:46 96JO 4800 LILLIE ST
14F086504 19:23:55 40A AUDIBLE 2800 WOODHOLLOW TRL
14F086503 19:23:56 25,86 1600 GOSHEN AVE
14F086505 19:24:39 40A AUDIBLE 3100 NEW HAVEN AVE
14F086506 19:28:11 34 TRAFF HAZARD 3800 LIMA RD & FERNHILL AVE W
14F086507 19:33:19 50,ATTEMPTED 1500 LAKEHURST DR
14F086508 19:33:59 25 PD ACCIDENT 300 MAIN ST E & LAFAYETTE ST S
14F086509 19:34:56 40A AUDIBLE 1700 HARRISON ST S
14F086510 19:36:20 40A AUDIBLE 3300 CHELMSFORD PL
14F086511 19:37:10 22I JUV INVEST 100 LEXINGTON AVE
14F086512 19:37:13 911 HANG UP 5700 LIBERTY CT
14F086513 19:37:33 43 DISTURBANCE 2700 STATE BLVD E & BEACON ST
14F086514 19:38:30 46 DOMESTIC 7900 SERENITY DR
14F086515 19:42:47 911 HANG UP 500 RUDISILL BLVD E
14F086516 19:47:35 103 UNWANTED 3000 COLISEUM BLVD W
14F086518 19:47:44 14 WARRANT 00 MAIN ST E
14F086517 19:52:32 43 DISTURBANCE 1100 LAFAYETTE ST S & LEWIS ST E
14F086519 19:53:49 911 HANG UP 800 DELAWARE AVE
14F086521 20:02:45 911 HANG UP 2900 MCCORMICK AVE
14F086523 20:02:56 EMS 2900 KENTUCKY AVE
14F086520 20:03:34 911 HANG UP 7500 DECATUR RD
14F086522 20:04:01 46 DOMESTIC 1500 TULIP TREE RD
14F086525 20:04:53 22I JUV INVEST 2000 KENTUCKY AVE
14F086524 20:10:37 80 CIVIL INVEST 3200 FAIRFIELD AVE
14F086526 20:18:22 27 RECKLESS DRI 2200 FAIRFIELD AVE & CREIGHTON AVE
14F086527 20:22:34 37 PARKING VIOL 400 BRACKENRIDGE ST W
14F086528 20:25:58 46 DOMESTIC 00 MAIN ST E
14F086529 20:27:30 911 HANG UP 2700 STARDALE DR
14F086530 20:35:06 101 OPEN DOOR 2700 HARRISON ST S
14F086531 20:35:14 23,113 3900 SMITH ST
14F086534 20:35:56 39 STOLEN VEHIC 400 FAIRFAX AVE W
14F086532 20:36:31 23JO 5000 NORTHFIELD DR
14F086533 20:38:49 30 TRAFFIC STOP 200 JEFFERSON BLVD E & BARR ST S
14F086537 20:39:25 25 PD ACCIDENT 3000 GOSHEN RD
14F086540 20:39:47 44LP 1000 HIGH ST & ST MARYS AVE
14F086535 20:39:52 50IP BURG I/P 1300 SINCLAIR ST
14F086536 20:40:19 911 HANG UP 200 SANDRA CT
14F086539 20:42:34 66 MENTALLY ILL 7700 BRECKENWOOD DR
14F086538 20:44:57 43 DISTURBANCE 3900 SMITH ST
14F086545 20:45:28 42 INTOX PERSON 2500 BROADWAY
14F086541 20:46:54 911 HANG UP 1600 SINCLAIR ST
14F086542 20:48:28 22I JUV INVEST 2600 NORTHGATE BLVD
14F086543 20:53:04 40A AUDIBLE 9700 COVINGTON RD
14F086544 20:54:04 30 TRAFFIC STOP 300 DEWALD ST E & LAFAYETTE ST S
14F086549 21:01:51 43 DISTURBANCE 1300 ST MARYS AVE
14F086547 21:03:32 16V PICKUP VID 00 MAIN ST E
14F086550 21:04:52 46 DOMESTIC 500 DEWALD ST W
14F086551 21:07:11 30 TRAFFIC STOP 2000 TAYLOR ST & BROOKLYN AVE
14F086552 21:09:39 59 CUTTING/STAB 6400 COVINGTON RD
14F086553 21:10:57 51 THEFT 100 PETTIT AVE E
14F086555 21:12:38 40 ALARM 100 WAYNE ST W
14F086554 21:13:59 30 TRAFFIC STOP 600 PONTIAC ST E & HANNA ST S
14F086556 21:14:03 46 DOMESTIC 5900 ST JOE CENTER RD
14F086557 21:15:13 43 DISTURBANCE 7100 BAER RD
14F086558 21:17:26 40A AUDIBLE 3500 AUTUMN LN
14F086559 21:18:19 911 HANG UP 400 RUDISILL BLVD E
14F086560 21:22:01 48,36 2400 EDSALL AVE
14F086561 21:22:15 108 FOLLOWUP 7000 CLINTON ST N
14F086562 21:26:19 911 HANG UP 1400 FRANCIS ST
14F086563 21:27:55 23IP VANDALISM 2900 ENGLE RD
14F086565 21:29:49 30 TRAFFIC STOP 200 COLISEUM BLVD W & SPEEDWAY DR
14F086564 21:30:10 48 SUSPICIOUS 4300 ANTHONY BLVD S
14F086567 21:34:06 103 UNWANTED 3100 COLISEUM BLVD W
14F086566 21:34:21 51 THEFT 200 MAIN ST E
14F086568 21:37:07 911 HANG UP 4000 AVONDALE DR
14F086570 21:37:15 101 OPEN DOOR 7700 WOHAMA DR
14F086569 21:38:32 40A AUDIBLE 800 MADISON ST
14F086571 21:42:25 43 DISTURBANCE 1400 MAIN ST W
14F086582 21:43:10 14 WARRANT 5100 STONEHEDGE BLVD
14F086572 21:47:50 30 TRAFFIC STOP 1500 WELLS ST
14F086574 21:48:59 103 UNWANTED 4700 COLDWATER RD
14F086581 21:50:10 22I JUV INVEST 3400 TIMBERHILL DR
14F086576 21:52:11 48,36 5900 FITCHBURG PL
14F086573 21:52:13 51,35 1100 WILDWOOD AVE W
14F086577 21:54:06 66 MENTALLY ILL 5500 ST JOE RD & KENDALE DR
14F086579 21:55:38 43 DISTURBANCE 900 LINCOLN AVE
14F086578 21:56:08 30 TRAFFIC STOP 1900 FREEMAN ST & TAYLOR ST
14F086580 21:57:08 43 DISTURBANCE 500 CHARLOTTE AVE
14F086587 21:59:34 50 BURGLARY 3300 COLISEUM BLVD W
14F086583 22:00:08 911 HANG UP 5300 COLDWATER RD
14F086584 22:07:20 113 SHOTS FIRED 8300 LAKESIDE DR & HANNA ST S
14F086585 22:07:36 45 NEIGHBORHOOD 4000 CLINTON ST S
14F086586 22:09:12 22I JUV INVEST 800 LEY RD & LIMA RD
14F086594 22:09:51 46 DOMESTIC 1600 STANLEY AVE
14F086595 22:09:55 45 NEIGHBORHOOD 500 CHARLOTTE AVE
14F086588 22:14:03 911 HANG UP 600 LAWTON PL
14F086590 22:17:31 46,96 10400 COLDWATER RD
14F086593 22:18:06 22I JUV INVEST 1500 CASS ST
14F086589 22:19:17 30 TRAFFIC STOP 4200 HANNA ST S & MCKINNIE AVE
14F086591 22:20:26 30 TRAFFIC STOP 700 HAYDEN ST & FRANCIS ST
14F086603 22:20:38 44FW 2900 DODGE AVE
14F086592 22:21:10 43 DISTURBANCE 2000 CRESCENT AVE
14F086598 22:23:04 66 72 HOUR 2200 RANDALLIA DR
14F086600 22:27:09 44FW 900 WASHINGTON BLVD E
14F086596 22:27:36 46,96 1200 THIRD ST
14F086599 22:28:40 34 TRAFF HAZARD 2600 INDIANA AVE & LINCOLN AVE
14F086597 22:30:38 30 TRAFFIC STOP 3200 DODGE AVE & HOBSON RD
14F086601 22:36:08 113 SHOTS FIRED 6300 LIBERTY DR & OLD TRAIL RD
14F086602 22:39:04 51 THEFT 6300 LIMA RD
14F086605 22:44:20 44FW 3400 WEBSTER ST
14F086604 22:45:40 30 TRAFFIC STOP 4500 STATE BLVD E
14F086606 22:46:44 30 TRAFFIC STOP 300 RUDISILL BLVD E & LAFAYETTE ST
14F086607 22:47:05 43 DISTURBANCE 3900 NEWPORT AVE
14F086608 22:49:22 43 DISTURBANCE 200 DEWALD ST E & BARR ST S
14F086610 22:50:47 22I JUV INVEST 8000 LAWTON OAKS CT
14F086612 22:51:07 40A AUDIBLE 8100 AUBURN RD
14F086611 22:54:05 30 TRAFFIC STOP 2200 MCKINNIE AVE & ABBOTT ST
14F086613 22:59:22 113 SHOTS FIRED 3600 FAIRFIELD AVE & OAKDALE DR W
14F086614 23:02:18 103 UNWANTED 3300 COLISEUM BLVD W
14F086615 23:03:16 43 DISTURBANCE 300 KILLEA ST
14F086617 23:05:14 46 DOMESTIC 5100 STONEHEDGE BLVD
14F086616 23:06:34 30 TRAFFIC STOP 800 BUCHANAN ST
14F086645 23:08:13 39 STOLEN VEHIC 3800 MONROE ST S
14F086618 23:09:34 15 ASSIST 2800 FAIRFIELD AVE
14F086619 23:10:05 48,36 3100 STATE BLVD E
14F086620 23:10:52 25 PD ACCIDENT 200 WASHINGTON BLVD E
14F086621 23:11:06 44LM 1200 MAIN ST W
14F086622 23:12:58 48 SUSPICIOUS 1100 FAIRFIELD AVE
14F086624 23:14:14 43 DISTURBANCE 1600 FOURTH ST W
14F086625 23:14:57 43 DISTURBANCE 1500 CASS ST
14F086623 23:15:15 44FW 400 MISSION HILL DR
14F086626 23:17:46 33,34 1400 COLISEUM BLVD N & LAKE AVE
14F086628 23:20:23 22I JUV INVEST 1200 SWINNEY AVE
14F086627 23:21:47 48 SUSPICIOUS 2200 BEACON ST
14F086629 23:24:47 46 DOMESTIC 7900 DECATUR RD
14F086630 23:26:35 43 DISTURBANCE 800 POPLAR ST
14F086632 23:26:43 24 MISSING PERS 8300 REDSTONE DR
14F086631 23:27:23 15 ASSIST 1400 WALLACE ST E
14F086635 23:30:25 63 CONTACT 3500 COLISEUM BLVD W
14F086633 23:30:57 23JO 6000 COVINGTON RD & GETZ RD
14F086638 23:31:26 44FW 600 SPRING ST & KELLY DR
14F086636 23:34:11 911 HANG UP 2800 EUCLID AVE
14F086634 23:34:53 911 HANG UP 3100 WARSAW ST
14F086640 23:36:05 102 THREATS 5500 OLD DOVER BLVD
14F086637 23:36:11 30 TRAFFIC STOP 600 LAFAYETTE ST S & MAIN ST E
14F086639 23:37:51 30 TRAFFIC STOP 2800 ANTHONY BLVD S & MCKEE ST
14F086641 23:37:52 63 CONTACT 5300 ROTHERMERE DR
14F086644 23:40:43 911 HANG UP 3500 WEISSER PARK AVE
14F086647 23:41:25 44FW 3400 SCHELE AVE
14F086642 23:41:38 44LM 7900 DECATUR RD
14F086643 23:42:27 30 TRAFFIC STOP 2300 WAYNE TRACE E & SUMMER ST
14F086646 23:42:55 43 DISTURBANCE 7400 LAKERIDGE DR
14F086648 23:47:33 30 TRAFFIC STOP 2900 SMITH ST & COLERICK ST
14F086649 23:51:16 129 9500 SARATOGA RD
14F086650 23:53:32 48,36 3000 GOSHEN RD
14F086651 23:54:38 46,96 1800 COLERICK ST
14F086652 23:55:54 30 TRAFFIC STOP 3700 BOWSER AVE
14F086653 23:59:54 30 TRAFFIC STOP 5700 ANTHONY BLVD S & PAULDING RD
Amber Alert

All-America City